Home   Weather   Fairfield   Past weeks
Flag for USA

Past Weather in Fairfield, North Carolina, USA — Yesterday and Last 2 Weeks

Now
54 °F

Overcast.


Feels Like: 51 °F
Forecast: 52 / 47 °F
Wind: 10 mph from Northeast

Location: Manteo / Dare County Regional

Current Time: Apr 4, 2020 at 2:00:05 am

Latest Report: Apr 4, 2020 at 1:15 am


Visibility: 10 mi

Pressure: 29.87 "Hg

Humidity: 63%

Dew Point: 42 °F

Location of FairfieldLocation

Past Weather in Fairfield — Graph

°F

Fairfield Temperature Yesterday

Maximum temperature yesterday: 65 °F (at 4:55 pm)
Minimum temperature yesterday: 51 °F (at 6:15 am)
Average temperature yesterday: 56 °F

High & Low Weather Summary for the Past Weeks

 TemperatureHumidityPressure
High83 °F (Mar 29, 1:15 pm)99% (Mar 22, 11:55 pm)30.47 "Hg (Mar 22, 11:55 pm)
Low44 °F (Apr 1, 12:35 pm)30% (Apr 3, 4:35 pm)29.41 "Hg (Apr 1, 2:15 am)
Average57 °F78%29.99 "Hg
* Reported Mar 20 12:15 am — Apr 4 12:55 am, Fairfield. Weather by CustomWeather, © 2020

Note: Actual official high and low records may vary slightly from our data, if they occured in-between our weather recording intervals... More about our weather records

Fairfield Weather History for the Previous 24 Hours

Scroll right to see more
 ConditionsComfort  
Time TempWeatherWind HumidityBarometerVisibility
12:55 am
Sat, Apr 4
54 °FOvercast.5 mph66%29.87 "Hg10 mi
12:35 am53 °FOvercast.5 mph65%29.87 "Hg10 mi
12:15 am53 °FOvercast.5 mph67%29.87 "Hg10 mi
11:55 pm
Fri, Apr 3
53 °FPassing clouds.5 mph67%29.87 "Hg10 mi
11:35 pm53 °FOvercast.7 mph65%29.87 "Hg10 mi
11:15 pm54 °FOvercast.9 mph63%29.87 "Hg10 mi
10:55 pm54 °FOvercast.10 mph59%29.86 "Hg10 mi
10:35 pm54 °FOvercast.8 mph60%29.86 "Hg10 mi
10:15 pm54 °FPassing clouds.8 mph61%29.85 "Hg10 mi
9:55 pm54 °FPassing clouds.9 mph63%29.85 "Hg10 mi
9:35 pm54 °FClear.10 mph62%29.85 "Hg10 mi
9:15 pm54 °FClear.10 mph61%29.84 "Hg10 mi
8:55 pm54 °FClear.10 mph60%29.83 "Hg10 mi
8:35 pm54 °FClear.12 mph61%29.82 "Hg10 mi
8:15 pm54 °FClear.13 mph60%29.81 "Hg10 mi
7:55 pm54 °FClear.12 mph58%29.80 "Hg10 mi
7:35 pm54 °FClear.9 mph57%29.80 "Hg10 mi
7:15 pm55 °FSunny.8 mph54%29.79 "Hg10 mi
6:55 pm57 °FSunny.9 mph49%29.79 "Hg10 mi
6:35 pm59 °FSunny.12 mph43%29.78 "Hg10 mi
6:15 pm60 °FSunny.12 mph41%29.77 "Hg10 mi
5:55 pm60 °FSunny.12 mph41%29.77 "Hg10 mi
5:35 pm61 °FSunny.12 mph40%29.76 "Hg10 mi
5:15 pm65 °FSunny.13 mph35%29.75 "Hg10 mi
4:55 pm65 °FSunny.10 mph31%29.74 "Hg10 mi
4:35 pm65 °FSunny.12 mph30%29.74 "Hg10 mi
4:15 pm65 °FSunny.13 mph31%29.74 "Hg10 mi
3:35 pm64 °FSunny.13 mph33%29.75 "Hg10 mi
2:35 pm63 °FSunny.13 mph34%29.77 "Hg10 mi
2:15 pm63 °FSunny.12 mph34%29.77 "Hg10 mi
1:55 pm62 °FSunny.13 mph32%29.77 "Hg10 mi
1:35 pm62 °FSunny.13 mph33%29.78 "Hg10 mi
1:15 pm61 °FSunny.12 mph34%29.79 "Hg10 mi
12:55 pm60 °FSunny.15 mph35%29.80 "Hg10 mi
12:35 pm60 °FSunny.16 mph34%29.80 "Hg10 mi
12:15 pm59 °FSunny.16 mph35%29.81 "Hg10 mi
11:55 am60 °FSunny.15 mph35%29.81 "Hg10 mi
11:35 am58 °FSunny.9 mph36%29.82 "Hg10 mi
11:15 am58 °FSunny.14 mph34%29.82 "Hg10 mi
10:55 am57 °FSunny.16 mph32%29.82 "Hg10 mi
10:35 am57 °FSunny.15 mph36%29.83 "Hg10 mi
10:15 am56 °FSunny.12 mph36%29.83 "Hg10 mi
9:35 am55 °FSunny.12 mph39%29.84 "Hg10 mi
9:15 am54 °FSunny.12 mph45%29.84 "Hg10 mi
8:55 am53 °FSunny.14 mph45%29.84 "Hg10 mi
8:35 am53 °FSunny.13 mph52%29.84 "Hg10 mi
8:15 am53 °FSunny.13 mph45%29.84 "Hg10 mi
7:55 am52 °FSunny.15 mph51%29.84 "Hg10 mi
7:35 am51 °FSunny.12 mph52%29.83 "Hg10 mi
7:15 am51 °FSunny.12 mph48%29.83 "Hg10 mi
6:55 am51 °FSunny.13 mph47%29.83 "Hg10 mi
6:35 am51 °FClear.13 mph48%29.83 "Hg10 mi
6:15 am51 °FClear.12 mph51%29.83 "Hg10 mi
5:55 am52 °FClear.10 mph48%29.82 "Hg10 mi
5:35 am52 °FClear.8 mph52%29.82 "Hg10 mi
5:15 am52 °FClear.8 mph51%29.82 "Hg10 mi
4:35 am53 °FClear.10 mph49%29.82 "Hg10 mi
4:15 am53 °FClear.12 mph51%29.81 "Hg10 mi
3:35 am53 °FClear.13 mph51%29.82 "Hg10 mi
3:15 am54 °FClear.8 mph51%29.82 "Hg10 mi
2:35 am54 °FClear.9 mph50%29.82 "Hg10 mi
2:15 am54 °FClear.9 mph50%29.82 "Hg10 mi
Weather by CustomWeather, © 2020

See weather overview

Advertising